• In Norway
  • List of Countries
  • For 7 days
  • Water Temperature
  • Satellite Maps
  • Weather Map
  • Weather Widgets
  • user-avatar
    Login

    Hourly Weather Kozulishki

    Today, 22 October, Monday

    Time Temperature Precipitation Wind Pressure Humidity
    00:00 +8°C° 0 mm 1 mps 756 mmHg 74%
    01:00 +8°C° 0 mm 1 mps 756 mmHg 76%
    02:00 +7°C° 0 mm 2 mps 755 mmHg 77%
    03:00 +6°C° 0 mm 2 mps 755 mmHg 79%
    04:00 +5°C° 0 mm 2 mps 755 mmHg 81%
    05:00 +5°C° 0 mm 2 mps 754 mmHg 84%
    06:00 +5°C° 0 mm 2 mps 754 mmHg 84%
    07:00 +5°C° 0 mm 2 mps 754 mmHg 85%
    08:00 +4°C° 0 mm 3 mps 754 mmHg 86%
    09:00 +5°C° 0 mm 3 mps 753 mmHg 79%
    10:00 +7°C° 0 mm 4 mps 753 mmHg 73%
    11:00 +8°C° 0 mm 4 mps 753 mmHg 67%
    12:00 +10°C° 0 mm 4 mps 752 mmHg 64%
    13:00 +10°C° 0 mm 5 mps 751 mmHg 62%
    14:00 +10°C° 0 mm 5 mps 751 mmHg 59%
    15:00 +10°C° 0 mm 5 mps 750 mmHg 63%
    16:00 +10°C° 0 mm 4 mps 750 mmHg 66%
    17:00 +8°C° 0 mm 4 mps 749 mmHg 69%
    18:00 +8°C° 0.1 mm 4 mps 749 mmHg 73%
    19:00 +8°C° 0.1 mm 4 mps 749 mmHg 76%
    20:00 +8°C° 0.1 mm 4 mps 749 mmHg 80%
    21:00 +7°C° 0.3 mm 4 mps 749 mmHg 81%
    22:00 +7°C° 0.3 mm 4 mps 749 mmHg 82%
    23:00 +6°C° 0.3 mm 4 mps 748 mmHg 83%

    Tomorrow, 23 October, Tuesday

    Time Temperature Precipitation Wind Pressure Humidity
    00:00 +5°C° 0 mm 4 mps 748 mmHg 85%
    01:00 +4°C° 0 mm 3 mps 748 mmHg 87%
    02:00 +3°C° 0 mm 3 mps 748 mmHg 89%
    03:00 +3°C° 0 mm 3 mps 748 mmHg 89%
    04:00 +3°C° 0 mm 3 mps 748 mmHg 88%
    05:00 +2°C° 0 mm 3 mps 747 mmHg 88%
    06:00 +3°C° 0 mm 3 mps 747 mmHg 87%
    07:00 +3°C° 0 mm 3 mps 747 mmHg 86%
    08:00 +3°C° 0 mm 3 mps 746 mmHg 85%
    09:00 +4°C° 0 mm 4 mps 746 mmHg 81%
    10:00 +5°C° 0 mm 5 mps 745 mmHg 76%
    11:00 +6°C° 0 mm 5 mps 744 mmHg 72%
    12:00 +5°C° 0.1 mm 6 mps 743 mmHg 70%
    13:00 +7°C° 0.1 mm 6 mps 741 mmHg 69%
    14:00 +6°C° 0.1 mm 7 mps 740 mmHg 67%
    15:00 +5°C° 0.2 mm 7 mps 738 mmHg 70%
    16:00 +5°C° 0.2 mm 8 mps 737 mmHg 72%
    17:00 +4°C° 0.2 mm 8 mps 735 mmHg 75%
    18:00 +4°C° 1.6 mm 8 mps 733 mmHg 78%
    19:00 +4°C° 1.6 mm 8 mps 732 mmHg 81%
    20:00 +4°C° 1.6 mm 8 mps 730 mmHg 85%
    21:00 +4°C° 0.7 mm 7 mps 729 mmHg 85%
    22:00 +5°C° 0.7 mm 7 mps 728 mmHg 86%
    23:00 +7°C° 0.7 mm 6 mps 727 mmHg 87%

    Day after tomorrow, 24 October, Wednesday

    Time Temperature Precipitation Wind Pressure Humidity
    00:00 +7°C° 0.4 mm 6 mps 726 mmHg 86%
    01:00 +5°C° 0.4 mm 6 mps 726 mmHg 85%
    02:00 +5°C° 0.4 mm 6 mps 725 mmHg 84%
    03:00 +5°C° 0.5 mm 6 mps 725 mmHg 84%
    04:00 +5°C° 0.5 mm 6 mps 724 mmHg 85%
    05:00 +4°C° 0.5 mm 6 mps 724 mmHg 85%
    06:00 +4°C° 0.4 mm 6 mps 724 mmHg 85%
    07:00 +4°C° 0.4 mm 6 mps 724 mmHg 84%
    08:00 +4°C° 0.4 mm 6 mps 724 mmHg 84%
    09:00 +4°C° 0.2 mm 7 mps 724 mmHg 80%
    10:00 +4°C° 0.2 mm 8 mps 725 mmHg 76%
    11:00 +5°C° 0.2 mm 9 mps 725 mmHg 73%
    12:00 +5°C° 1 mm 9 mps 725 mmHg 74%
    13:00 +5°C° 1 mm 10 mps 725 mmHg 75%
    14:00 +3°C° 1 mm 10 mps 725 mmHg 77%
    15:00 +5°C° 0.6 mm 10 mps 726 mmHg 78%
    16:00 +5°C° 0.6 mm 9 mps 726 mmHg 79%
    17:00 +5°C° 0.6 mm 9 mps 727 mmHg 80%
    18:00 +5°C° 0.4 mm 9 mps 728 mmHg 81%
    19:00 +3°C° 0.4 mm 9 mps 729 mmHg 81%
    20:00 +3°C° 0.4 mm 9 mps 730 mmHg 81%
    21:00 +3°C° 0.4 mm 9 mps 731 mmHg 81%
    22:00 +3°C° 0.4 mm 9 mps 732 mmHg 80%
    23:00 +3°C° 0.4 mm 9 mps 733 mmHg 79%

    25 October, Thursday

    Time Temperature Precipitation Wind Pressure Humidity
    00:00 +4°C° 0.1 mm 8 mps 734 mmHg 79%
    01:00 +2°C° 0.1 mm 8 mps 735 mmHg 78%
    02:00 +2°C° 0.1 mm 8 mps 736 mmHg 78%
    03:00 +2°C° 0 mm 8 mps 736 mmHg 78%
    04:00 +2°C° 0 mm 8 mps 737 mmHg 78%
    05:00 +3°C° 0 mm 7 mps 738 mmHg 78%
    06:00 +2°C° 0 mm 7 mps 738 mmHg 80%
    07:00 +2°C° 0 mm 6 mps 738 mmHg 82%
    08:00 +2°C° 0 mm 6 mps 739 mmHg 84%
    09:00 +3°C° 0 mm 6 mps 739 mmHg 79%
    10:00 +4°C° 0 mm 7 mps 739 mmHg 73%
    11:00 +5°C° 0 mm 7 mps 739 mmHg 68%
    12:00 +5°C° 0.1 mm 7 mps 739 mmHg 66%
    13:00 +7°C° 0.1 mm 6 mps 739 mmHg 63%
    14:00 +7°C° 0.1 mm 6 mps 739 mmHg 61%
    15:00 +6°C° 0.1 mm 5 mps 738 mmHg 65%
    16:00 +6°C° 0.1 mm 4 mps 738 mmHg 69%
    17:00 +5°C° 0.1 mm 4 mps 738 mmHg 73%
    18:00 +5°C° 0.3 mm 3 mps 737 mmHg 79%
    19:00 +5°C° 0.3 mm 3 mps 737 mmHg 84%
    20:00 +6°C° 0.3 mm 2 mps 737 mmHg 89%
    21:00 +6°C° 0.1 mm 2 mps 737 mmHg 91%
    22:00 +6°C° 0.1 mm 2 mps 737 mmHg 93%
    23:00 +6°C° 0.1 mm 2 mps 736 mmHg 95%

    26 October, Friday

    Time Temperature Precipitation Wind Pressure Humidity
    00:00 +6°C° 0.1 mm 2 mps 737 mmHg 95%
    01:00 +6°C° 0.1 mm 2 mps 737 mmHg 95%
    02:00 +5°C° 0.1 mm 3 mps 737 mmHg 95%
    03:00 +5°C° 0.1 mm 3 mps 737 mmHg 95%
    04:00 +5°C° 0.1 mm 3 mps 737 mmHg 94%
    05:00 +7°C° 0.1 mm 3 mps 737 mmHg 93%
    06:00 +7°C° 0.1 mm 3 mps 738 mmHg 92%
    07:00 +6°C° 0.1 mm 4 mps 738 mmHg 91%
    08:00 +6°C° 0.1 mm 4 mps 738 mmHg 90%
    09:00 +7°C° 0 mm 4 mps 739 mmHg 85%
    10:00 +8°C° 0 mm 4 mps 739 mmHg 80%
    11:00 +10°C° 0 mm 4 mps 739 mmHg 75%
    12:00 +10°C° 0 mm 4 mps 739 mmHg 73%
    13:00 +10°C° 0 mm 4 mps 740 mmHg 71%
    14:00 +11°C° 0 mm 4 mps 740 mmHg 69%
    15:00 +10°C° 0.1 mm 4 mps 740 mmHg 75%
    16:00 +10°C° 0.1 mm 4 mps 740 mmHg 81%
    17:00 +8°C° 0.1 mm 4 mps 740 mmHg 87%
    18:00 +8°C° 0.1 mm 4 mps 740 mmHg 86%
    19:00 +8°C° 0.1 mm 4 mps 739 mmHg 85%
    20:00 +8°C° 0.1 mm 4 mps 739 mmHg 84%
    21:00 +8°C° 0 mm 4 mps 739 mmHg 83%
    22:00 +8°C° 0 mm 5 mps 739 mmHg 82%
    23:00 +8°C° 0 mm 5 mps 739 mmHg 81%

    27 October, Saturday

    Time Temperature Precipitation Wind Pressure Humidity
    00:00 +8°C° 0 mm 5 mps 739 mmHg 81%
    01:00 +8°C° 0 mm 5 mps 739 mmHg 81%
    02:00 +8°C° 0 mm 5 mps 738 mmHg 81%
    03:00 +8°C° 0 mm 5 mps 738 mmHg 82%
    04:00 +8°C° 0 mm 5 mps 738 mmHg 83%
    05:00 +8°C° 0 mm 5 mps 738 mmHg 84%
    06:00 +8°C° 0 mm 5 mps 738 mmHg 85%
    07:00 +8°C° 0 mm 5 mps 738 mmHg 87%
    08:00 +7°C° 0 mm 4 mps 738 mmHg 88%
    09:00 +8°C° 0 mm 5 mps 738 mmHg 84%
    10:00 +9°C° 0 mm 5 mps 738 mmHg 81%
    11:00 +9°C° 0 mm 5 mps 738 mmHg 78%
    12:00 +11°C° 0 mm 4 mps 738 mmHg 76%
    13:00 +11°C° 0 mm 4 mps 738 mmHg 74%
    14:00 +11°C° 0 mm 4 mps 737 mmHg 72%
    15:00 +11°C° 0 mm 3 mps 737 mmHg 76%
    16:00 +10°C° 0 mm 2 mps 737 mmHg 80%
    17:00 +10°C° 0 mm 2 mps 737 mmHg 83%
    18:00 +10°C° 0.2 mm 1 mps 737 mmHg 85%
    19:00 +10°C° 0.2 mm 1 mps 736 mmHg 87%
    20:00 +10°C° 0.2 mm 1 mps 736 mmHg 89%
    21:00 +10°C° 0.5 mm 1 mps 736 mmHg 90%
    22:00 +10°C° 0.5 mm 1 mps 735 mmHg 92%
    23:00 +9°C° 0.5 mm 2 mps 735 mmHg 94%
    Show more